[[{"header":{"parameterUnit":"m.s-1","parameterCategory":1,"la1":30.2991,"la2":30.254,"lo1":-89.0895,"lo2":-89.0444,"dy":0.0017,"dx":0.0017,"nx":28,"ny":28,"refTime":"2025-01-14T03:00:00:Z","depth":0,"parameterNumber":2,"parameterNumberName":"U-component_of_WINDS"},"data":[0,0,0,0,0,0,0,0,0,0,0,0,0,0,0,0,0,0,0,0,0,0,0,0,0,0,0,0,0,0,0,0,0,0,0,0,0,0,0,0,0,0,0,0,0,0,0,0,0,0,0,0,0,0,0,0,0,0,-2.659,-2.659,0,-2.6663,-2.6664,-2.6665,-2.6592,-2.6589,-2.6586,-2.6583,-2.666,-2.6665,-2.667,0,0,0,0,0,0,0,0,0,0,0,0,0,-2.6386,-2.6391,-2.6589,-2.659,-2.6591,-2.6663,-2.6664,-2.6665,-2.6592,-2.6589,-2.6585,-2.6582,-2.6659,-2.6664,-2.667,0,0,0,0,0,0,0,0,0,0,0,0,0,-2.6469,-2.6392,-2.6589,-2.6563,-2.6562,-2.6663,-2.6664,-2.6665,-2.6593,-2.6589,-2.6584,-2.658,-2.6657,-2.6664,-2.6671,-2.6802,0,0,-2.6693,-2.6696,0,0,0,0,0,0,0,0,-2.6464,-2.6477,-2.6566,-2.6565,-2.6564,-2.6614,-2.6621,-2.6711,-2.6594,-2.6581,-2.6583,-2.6578,-2.6648,-2.6656,-2.6679,-2.6805,-2.6808,-2.6693,-2.6698,-2.6701,-2.6703,0,0,0,0,0,0,0,-2.6459,-2.6473,-2.6619,-2.6568,-2.6566,-2.6549,-2.6556,-2.6638,-2.6638,-2.6582,-2.6577,-2.6586,-2.6647,-2.6673,-2.6681,-2.681,-2.6693,-2.6699,-2.6704,-2.6707,-2.7047,-2.7051,0,0,0,0,0,0,-2.6456,-2.6469,-2.6616,-2.6621,-2.6502,-2.6556,-2.6563,-2.6602,-2.6637,-2.6638,-2.659,-2.6583,-2.6663,-2.6672,-2.6683,-2.6839,-2.6701,-2.6707,-2.6711,-2.7042,-2.7048,-2.7053,0,0,0,0,0,0,-2.6452,-2.647,-2.6613,-2.6543,-2.656,-2.6564,-2.6608,-2.6606,-2.6632,-2.6643,-2.6643,-2.6616,-2.666,-2.6673,-2.6773,-2.6841,-2.671,-2.6717,-2.7037,-2.7044,-2.7051,-2.7153,0,0,0,0,0,0,-2.6446,-2.6469,-2.6518,-2.6545,-2.6564,-2.6702,-2.6612,-2.661,-2.6644,-2.6635,-2.6668,-2.6669,-2.6657,-2.6762,-2.678,-2.6848,-2.6722,-2.7031,-2.704,-2.7048,-2.7143,-2.7162,-2.7179,0,0,0,0,0,-2.6439,-2.6544,-2.6521,-2.6539,-2.6626,-2.6706,-2.6717,-2.6701,-2.665,-2.67,-2.6707,-2.6668,-2.683,-2.6773,-2.6792,-2.6864,-2.7026,-2.7037,-2.7048,-2.7135,-2.7159,-2.7178,0,0,0,0,0,0,-2.6526,-2.6547,-2.6522,-2.6638,-2.6671,-2.6693,-2.6756,-2.6726,-2.6774,-2.6764,-2.6742,-2.675,-2.6856,-2.6869,-2.6805,-2.6993,-2.692,-2.6935,-2.698,-2.7002,-2.702,-2.7015,-2.6728,0,0,0,0,0,-2.6558,-2.662,-2.6636,-2.6737,-2.6755,-2.6753,-2.6787,-2.6771,-2.6804,-2.6818,-2.6832,-2.6866,-2.6925,-2.6964,-2.7018,-2.7144,-2.7151,-2.7203,-2.7221,-2.7235,-2.7249,-2.7317,-2.7341,-2.7088,-2.7088,-2.7088,0,0,-2.6626,-2.6646,-2.6687,-2.6755,-2.6779,-2.6844,-2.6765,-2.6838,-2.6887,-2.6829,-2.6924,-2.6936,-2.6972,-2.7086,-2.7137,-2.7101,-2.732,-2.7249,-2.726,-2.7266,-2.7331,-2.7355,-2.7376,-2.7096,-2.7094,-2.7093,0,0,-2.6784,-2.6805,-2.6892,-2.6917,-2.6953,-2.6951,-2.6972,-2.6999,-2.7005,-2.7099,-2.7058,-2.7115,-2.7217,-2.7244,-2.7272,-2.744,-2.7406,-2.7458,-2.7552,-2.7619,-2.7639,-2.7657,-2.7718,-2.774,-2.7472,-2.7472,-2.7472,0,-2.6865,-2.6962,-2.6941,-2.7017,-2.7049,-2.6999,-2.7088,-2.7113,-2.7165,-2.7189,-2.7147,-2.7273,-2.7294,-2.7414,-2.7455,-2.7478,-2.7502,-2.7455,-2.7638,-2.7655,-2.7671,-2.773,-2.7753,-2.7478,-2.7477,-2.7477,-2.7476,0,-2.706,-2.7128,-2.7194,-2.7245,-2.7284,-2.7366,-2.7358,-2.74,-2.7381,-2.7384,-2.7481,-2.7504,-2.7563,-2.759,-2.7572,-2.7708,-2.7684,-2.7641,-2.7568,-2.7702,-2.7756,-2.7779,-2.7487,-2.7485,-2.7483,-2.7481,0,0,-2.7276,-2.7314,-2.7339,-2.7362,-2.7398,-2.745,-2.753,-2.7587,-2.7624,-2.7661,-2.7729,-2.7815,-2.7775,-2.7806,-2.7791,-2.7849,-2.7983,-2.7798,-2.7799,-2.7833,-2.8135,-2.8169,-2.8195,-2.796,-2.7964,-2.7967,-2.8132,0,-2.7436,-2.7575,-2.7558,-2.7691,-2.7754,-2.7707,-2.7776,-2.7806,-2.781,-2.7865,-2.7869,-2.7931,-2.7873,-2.7891,-2.7947,-2.7955,-2.8043,-2.7942,-2.8023,-2.8026,-2.8018,-2.8223,-2.8259,-2.8414,-2.8153,-2.8157,-2.8159,0,-2.7642,-2.7687,-2.7826,-2.7853,-2.7878,-2.7941,-2.7992,-2.8044,-2.8077,-2.8076,-2.8111,-2.8085,-2.8166,-2.809,-2.8201,-2.8133,-2.8164,-2.8173,-2.8178,-2.8187,-2.8103,-2.8239,-2.8463,-2.8487,-2.8193,-2.819,-2.8188,0,-2.7788,-2.7883,-2.7979,-2.8,-2.8032,-2.8078,-2.8094,-2.8122,-2.8157,-2.8202,-2.8225,-2.8278,-2.8308,-2.835,-2.8339,-2.8285,-2.8454,-2.8376,-2.8456,-2.8457,-2.8496,-2.8494,-2.873,-2.8513,-2.8513,-2.8512,-2.8512,0,-2.797,-2.8058,-2.8045,-2.8104,-2.82,-2.818,-2.8276,-2.8286,-2.8312,-2.8372,-2.8334,-2.8392,-2.8374,-2.8431,-2.8423,-2.8517,-2.853,-2.8532,-2.853,-2.8537,-2.8537,-2.8559,-2.8549,-2.8519,-2.8517,-2.8516,-2.8515,0,-2.8151,-2.8145,-2.8247,-2.8269,-2.8277,-2.8347,-2.8366,-2.8422,-2.8423,-2.85,-2.8517,-2.8518,-2.8583,-2.8576,-2.8649,-2.8644,-2.8761,-2.8745,-2.875,-2.8747,-2.8828,-2.8821,-2.9088,-2.9123,-2.8882,-2.8884,-2.8886,0,-2.8268,-2.8334,-2.8364,-2.8401,-2.842,-2.8481,-2.8517,-2.8499,-2.8538,-2.8581,-2.8632,-2.8693,-2.8741,-2.8848,-2.8855,-2.8911,-2.8897,-2.8986,-2.8905,-2.891,-2.89,-2.8897,-2.8904,-2.9003,-2.9006,-2.9008,-2.901,0,-2.8478,-2.8472,-2.8525,-2.8577,-2.8621,-2.8661,-2.8698,-2.8731,-2.8716,-2.8762,-2.8828,-2.8866,-2.894,-2.9002,-2.9054,-2.9071,-2.9039,-2.9035,-2.9057,-2.9066,-2.9067,-2.9069,-2.8796,-2.903,-2.9028,-2.9026,-2.9025,-2.9024,-2.8631,-2.8688,-2.8718,-2.8778,-2.8804,-2.8839,-2.8893,-2.89,-2.8954,-2.9013,-2.8999,-2.9074,-2.9105,-2.9172,-2.9194,-2.9252,-2.922,-2.9251,-2.9259,-2.9267,-2.9278,-2.9056,-2.9261,-2.9261,-2.926,-2.926,-2.9259,0,-2.8841,-2.8857,-2.8913,-2.8965,-2.9013,-2.8977,-2.9015,-2.9058,-2.9124,-2.9155,-2.9204,-2.928,-2.9339,-2.9351,-2.9409,-2.9453,-2.944,-2.9469,-2.9466,-2.9471,-2.9303,-2.9279,-2.9479,-2.9479,-2.9479,-2.9479,-2.9479,-2.9478,-2.8955,-2.905,-2.9047,-2.9154,-2.917,-2.9243,-2.9268,-2.93,-2.9325,-2.9412,-2.9461,-2.9468,-2.9492,-2.9551,-2.9604,-2.9606,-2.963,-2.9665,-2.9662,-2.9505,-2.9483,-2.9462,-2.944,-2.967,-2.967,-2.9825,-2.9827,-2.9828]},{"header":{"parameterUnit":"m.s-1","parameterCategory":1,"la1":30.2991,"la2":30.254,"lo1":-89.0895,"lo2":-89.0444,"dy":0.0017,"dx":0.0017,"nx":28,"ny":28,"refTime":"2025-01-14T03:00:00:Z","depth":0,"parameterNumber":3,"parameterNumberName":"V-component_of_WINDS"},"data":[0,0,0,0,0,0,0,0,0,0,0,0,0,0,0,0,0,0,0,0,0,0,0,0,0,0,0,0,0,0,0,0,0,0,0,0,0,0,0,0,0,0,0,0,0,0,0,0,0,0,0,0,0,0,0,0,0,0,-3.0725,-3.0726,0,-3.0813,-3.0814,-3.0815,-3.0803,-3.0801,-3.08,-3.0798,-3.0886,-3.0889,-3.0893,0,0,0,0,0,0,0,0,0,0,0,0,0,-3.0543,-3.0546,-3.0725,-3.0726,-3.0727,-3.0813,-3.0814,-3.0815,-3.0803,-3.0801,-3.0799,-3.0798,-3.0884,-3.0889,-3.0893,0,0,0,0,0,0,0,0,0,0,0,0,0,-3.0626,-3.0548,-3.0725,-3.0731,-3.0733,-3.0813,-3.0814,-3.0816,-3.0803,-3.0801,-3.0799,-3.0797,-3.0883,-3.0888,-3.0894,-3.0972,0,0,-3.0911,-3.0913,0,0,0,0,0,0,0,0,-3.0621,-3.0632,-3.0729,-3.0731,-3.0733,-3.0795,-3.0782,-3.0868,-3.0804,-3.0776,-3.0798,-3.0796,-3.0857,-3.0865,-3.0886,-3.0976,-3.098,-3.0911,-3.0915,-3.0917,-3.0919,0,0,0,0,0,0,0,-3.0615,-3.0628,-3.076,-3.0731,-3.0733,-3.0729,-3.0738,-3.0798,-3.0828,-3.0779,-3.0778,-3.0789,-3.0857,-3.088,-3.0888,-3.0981,-3.0911,-3.0916,-3.0919,-3.0922,-3.1139,-3.1141,0,0,0,0,0,0,-3.0608,-3.0624,-3.0757,-3.0762,-3.067,-3.0734,-3.0744,-3.0777,-3.0827,-3.0833,-3.079,-3.0788,-3.0872,-3.0881,-3.0891,-3.0985,-3.0917,-3.0922,-3.0925,-3.1136,-3.1139,-3.1142,0,0,0,0,0,0,-3.0604,-3.062,-3.0753,-3.0693,-3.071,-3.0739,-3.0776,-3.078,-3.0803,-3.0836,-3.0841,-3.0809,-3.0871,-3.0883,-3.0952,-3.0988,-3.0925,-3.093,-3.1133,-3.1137,-3.1141,-3.1174,0,0,0,0,0,0,-3.0599,-3.0619,-3.065,-3.0694,-3.0713,-3.0814,-3.0778,-3.0783,-3.0813,-3.081,-3.0855,-3.086,-3.087,-3.0944,-3.0957,-3.0994,-3.0934,-3.113,-3.1135,-3.1139,-3.117,-3.1179,-3.1186,0,0,0,0,0,-3.0593,-3.0655,-3.0651,-3.0667,-3.0752,-3.0816,-3.0827,-3.0838,-3.0816,-3.0846,-3.0867,-3.0858,-3.0982,-3.0951,-3.0966,-3.1005,-3.1128,-3.1134,-3.1139,-3.1167,-3.1177,-3.1186,0,0,0,0,0,0,-3.0613,-3.0661,-3.0657,-3.0736,-3.0772,-3.0814,-3.0853,-3.0849,-3.0892,-3.0887,-3.0898,-3.0909,-3.0978,-3.0999,-3.0963,-3.1083,-3.1052,-3.106,-3.1067,-3.1078,-3.1085,-3.1079,-3.0939,0,0,0,0,0,-3.0627,-3.0676,-3.0715,-3.078,-3.0799,-3.0823,-3.0851,-3.0857,-3.0894,-3.0909,-3.0936,-3.0972,-3.1018,-3.1049,-3.1094,-3.1173,-3.1182,-3.1207,-3.1215,-3.1222,-3.1229,-3.1272,-3.1283,-3.116,-3.116,-3.116,0,0,-3.0656,-3.0688,-3.0718,-3.0785,-3.0814,-3.0864,-3.0836,-3.0889,-3.0926,-3.0917,-3.0984,-3.1005,-3.1045,-3.112,-3.1154,-3.1139,-3.1265,-3.1229,-3.1234,-3.1238,-3.1279,-3.129,-3.1301,-3.1164,-3.1163,-3.1162,0,0,-3.0734,-3.0764,-3.0822,-3.0851,-3.0895,-3.0911,-3.0925,-3.0967,-3.0981,-3.1048,-3.1042,-3.1085,-3.1166,-3.1195,-3.1221,-3.1309,-3.1302,-3.1324,-3.1365,-3.1407,-3.1416,-3.1425,-3.1456,-3.1468,-3.1331,-3.1331,-3.1331,0,-3.0764,-3.084,-3.0852,-3.0906,-3.0936,-3.0931,-3.0989,-3.1016,-3.1072,-3.1092,-3.1075,-3.1176,-3.1203,-3.1284,-3.1306,-3.1326,-3.1342,-3.1319,-3.1414,-3.1423,-3.1431,-3.1461,-3.1473,-3.1333,-3.1333,-3.1333,-3.1333,0,-3.0875,-3.0927,-3.0968,-3.1024,-3.1058,-3.1114,-3.1133,-3.1165,-3.1168,-3.1185,-3.1253,-3.1285,-3.1337,-3.1356,-3.1359,-3.1437,-3.1427,-3.1412,-3.138,-3.1445,-3.1473,-3.1485,-3.1337,-3.1336,-3.1335,-3.1335,0,0,-3.0969,-3.103,-3.1045,-3.1069,-3.1118,-3.1158,-3.1213,-3.1264,-3.1292,-3.133,-3.1377,-3.1445,-3.1431,-3.146,-3.1466,-3.1502,-3.157,-3.1483,-3.1484,-3.1498,-3.1658,-3.1669,-3.1682,-3.1566,-3.1568,-3.157,-3.1654,0,-3.1051,-3.115,-3.1162,-3.125,-3.1298,-3.1293,-3.1341,-3.1376,-3.1393,-3.1435,-3.1453,-3.1502,-3.148,-3.1498,-3.1534,-3.1554,-3.1602,-3.1548,-3.1608,-3.161,-3.1598,-3.1697,-3.1709,-3.1787,-3.1665,-3.1667,-3.1669,0,-3.1161,-3.1204,-3.1296,-3.1338,-3.1358,-3.1401,-3.1449,-3.149,-3.1528,-3.1538,-3.157,-3.1571,-3.1627,-3.1593,-3.167,-3.1633,-3.1658,-3.1672,-3.1675,-3.1681,-3.1643,-3.1705,-3.1812,-3.1824,-3.1686,-3.1685,-3.1684,0,-3.122,-3.13,-3.1366,-3.1388,-3.1438,-3.1468,-3.149,-3.1526,-3.1556,-3.1597,-3.1616,-3.1663,-3.1688,-3.1724,-3.1737,-3.1712,-3.1813,-3.1781,-3.1822,-3.1822,-3.1844,-3.1842,-3.1956,-3.186,-3.186,-3.186,-3.1859,0,-3.1311,-3.1368,-3.1393,-3.1434,-3.1497,-3.151,-3.1571,-3.1592,-3.1624,-3.1668,-3.1666,-3.1707,-3.1722,-3.1765,-3.1775,-3.1837,-3.1849,-3.1857,-3.1859,-3.1858,-3.1856,-3.1874,-3.1869,-3.1863,-3.1862,-3.1862,-3.1861,0,-3.1387,-3.1407,-3.1478,-3.152,-3.1532,-3.1576,-3.1611,-3.165,-3.1666,-3.1721,-3.1735,-3.1761,-3.1811,-3.1828,-3.1888,-3.1895,-3.1967,-3.1965,-3.1955,-3.1955,-3.1995,-3.1991,-3.2125,-3.2143,-3.2035,-3.2036,-3.2037,0,-3.1444,-3.1488,-3.1534,-3.1564,-3.1587,-3.1635,-3.1665,-3.1679,-3.1711,-3.1757,-3.179,-3.184,-3.1881,-3.1961,-3.1985,-3.2031,-3.2029,-3.2073,-3.2036,-3.2033,-3.203,-3.2027,-3.2031,-3.208,-3.2081,-3.2082,-3.2082,0,-3.1543,-3.155,-3.1595,-3.1643,-3.168,-3.1718,-3.1755,-3.1779,-3.1798,-3.1833,-3.1885,-3.1917,-3.1979,-3.2029,-3.2076,-3.2097,-3.2093,-3.2094,-3.2106,-3.2104,-3.2097,-3.2101,-3.1973,-3.2091,-3.209,-3.2089,-3.2089,-3.2089,-3.1611,-3.1649,-3.1688,-3.1738,-3.1767,-3.1802,-3.184,-3.1861,-3.1905,-3.1958,-3.1963,-3.2019,-3.2055,-3.2118,-3.2142,-3.2185,-3.2172,-3.219,-3.2194,-3.2198,-3.2201,-3.209,-3.2193,-3.2193,-3.2193,-3.2193,-3.2193,0,-3.1709,-3.1734,-3.1779,-3.1832,-3.187,-3.1864,-3.1904,-3.1937,-3.1986,-3.2021,-3.2061,-3.2121,-3.2169,-3.2196,-3.2244,-3.2273,-3.2272,-3.2285,-3.2283,-3.2288,-3.221,-3.2195,-3.2285,-3.2285,-3.2285,-3.2285,-3.2285,-3.2285,-3.1765,-3.183,-3.1842,-3.1921,-3.1945,-3.2,-3.2024,-3.2055,-3.2083,-3.215,-3.219,-3.2208,-3.2239,-3.2289,-3.2332,-3.2339,-3.2356,-3.2371,-3.2376,-3.2303,-3.2293,-3.2284,-3.227,-3.2374,-3.2374,-3.245,-3.2451,-3.2451]}]]